Tracking 34142 objects as of 18-May-2026
HD Live streaming from Space Station
objects crossing your sky now

SOAP

Track SOAP now!
10-day predictions


NORAD ID: 63263
Int'l Code: 2025-052BF
Perigee: 581.8 km
Apogee: 587.1 km
Inclination: 97.7 °
Period: 96.2 minutes
Semi major axis: 6955 km
RCS: Unknown
Launch date: March 15, 2025
Source: France (FR)
Launch site: AIR FORCE WESTERN TEST RANGE (AFWTR)
Your satellite tracking list
Your tracking list is empty




NASA's NSSDC Master Catalog

Two Line Element Set (TLE):
1 63263U 25052BF  26137.80707551  .00001149  00000-0  10584-3 0  9992
2 63263  97.6897  30.6480 0003797  80.8458 279.3193 14.96628695 64143
Source of the keplerian elements: AFSPC